WBANNO,USDM_WEEK,LONGITUDE,LATITUDE,SMVWC_5_CM_MEAN,SMANOM_5_CM_MEAN,SMPERC_5_CM_30COUNTS,SMPERC_5_CM_70COUNTS,SMVWC_10_CM_MEAN,SMANOM_10_CM_MEAN,SMPERC_10_CM_30COUNTS,SMPERC_10_CM_70COUNTS,SMVWC_20_CM_MEAN,SMANOM_20_CM_MEAN,SMPERC_20_CM_30COUNTS,SMPERC_20_CM_70COUNTS,SMVWC_50_CM_MEAN,SMANOM_50_CM_MEAN,SMPERC_50_CM_30COUNTS,SMPERC_50_CM_70COUNTS,SMVWC_100_CM_MEAN,SMANOM_100_CM_MEAN,SMPERC_100_CM_30COUNTS,SMPERC_100_CM_70COUNTS,SMVWC_TOP_CM_MEAN,SMANOM_TOP_CM_MEAN,SMPERC_TOP_CM_30COUNTS,SMPERC_TOP_CM_70COUNTS,SMVWC_COLUMN_CM_MEAN,SMANOM_COLUMN_CM_MEAN,SMPERC_COLUMN_CM_30COUNTS,SMPERC_COLUMN_CM_70COUNTS
23907,20100222,-98.08,30.62,,,,,,,,,,,,,,,,,,,,,,,,,,,,
23907,20100223,-98.08,30.62,,,,,,,,,,,,,,,,,,,,,,,,,,,,
23907,20100224,-98.08,30.62,,,,,,,,,,,,,,,,,,,,,,,,,,,,
23907,20100225,-98.08,30.62,,,,,,,,,,,,,,,,,,,,,,,,,,,,
23907,20100226,-98.08,30.62,,,,,,,,,,,,,,,,,,,,,,,,,,,,
23907,20100227,-98.08,30.62,,,,,,,,,,,,,,,,,,,,,,,,,,,,
23907,20100228,-98.08,30.62,0.431,0.79,0,0.882,0.428,0.72,0,0.745,,,,,,,,,,,,,0.429,0.81,0,0.941,,,,
23907,20100301,-98.08,30.62,0.437,0.83,0,0.892,0.435,0.8,0,0.826,,,,,,,,,,,,,0.436,0.86,0,0.946,,,,
23907,20100302,-98.08,30.62,0.458,1,0,0.946,0.458,1.03,0,0.952,,,,,,,,,,,,,0.458,1.06,0,0.964,,,,
23907,20100303,-98.08,30.62,0.467,1.07,0,1,0.469,1.15,0,1,,,,,,,,,,,,,0.468,1.14,0,1,,,,
23907,20100304,-98.08,30.62,0.467,1.05,0,1,0.471,1.15,0,1,,,,,,,,,,,,,0.469,1.12,0,1,,,,
23907,20100305,-98.08,30.62,0.467,1.03,0,1,0.475,1.18,0,1,,,,,,,,,,,,,0.471,1.12,0,1,,,,
23907,20100306,-98.08,30.62,0.468,1.03,0,1,0.478,1.2,0,1,,,,,,,,,,,,,0.473,1.12,0,1,,,,
23907,20100307,-98.08,30.62,0.469,1.04,0,1,0.482,1.24,0,1,,,,,,,,,,,,,0.475,1.13,0,1,,,,
23907,20100308,-98.08,30.62,0.466,1.01,0,1,0.483,1.26,0,1,,,,,,,,,,,,,0.475,1.11,0,1,,,,
23907,20100309,-98.08,30.62,0.466,1,0,1,0.48,1.23,0,1,,,,,,,,,,,,,0.473,1.09,0,1,,,,
23907,20100310,-98.08,30.62,0.472,1.06,0,1,0.486,1.32,0,1,,,,,,,,,,,,,0.479,1.14,0,1,,,,
23907,20100311,-98.08,30.62,0.475,1.09,0,1,0.491,1.38,0,1,,,,,,,,,,,,,0.483,1.18,0,1,,,,
23907,20100312,-98.08,30.62,0.477,1.1,0,1,0.495,1.43,0,1,,,,,,,,,,,,,0.486,1.2,0,1,,,,
23907,20100313,-98.08,30.62,0.478,1.1,0,1,0.499,1.48,0,1,,,,,,,,,,,,,0.488,1.23,0,1,,,,
23907,20100314,-98.08,30.62,0.478,1.09,0,1,0.501,1.52,0,1,,,,,,,,,,,,,0.489,1.25,0,1,,,,
23907,20100315,-98.08,30.62,0.477,1.08,0,1,0.504,1.55,0,1,,,,,,,,,,,,,0.49,1.27,0,1,,,,
23907,20100316,-98.08,30.62,0.462,0.92,0,1,0.498,1.49,0,1,,,,,,,,,,,,,0.48,1.17,0,1,,,,
23907,20100317,-98.08,30.62,0.467,0.94,0,1,0.506,1.57,0,1,,,,,,,,,,,,,0.486,1.23,0,1,,,,
23907,20100318,-98.08,30.62,0.469,0.94,0,1,0.51,1.61,0,1,,,,,,,,,,,,,0.489,1.27,0,1,,,,
23907,20100319,-98.08,30.62,0.47,0.94,0,1,0.513,1.63,0,1,,,,,,,,,,,,,0.491,1.28,0,1,,,,
23907,20100320,-98.08,30.62,0.472,0.95,0,1,0.516,1.63,0,1,,,,,,,,,,,,,0.494,1.29,0,1,,,,
23907,20100321,-98.08,30.62,0.487,1.06,0,1,0.529,1.73,0,1,,,,,,,,,,,,,0.508,1.4,0,1,,,,
23907,20100322,-98.08,30.62,0.493,1.11,0,1,0.534,1.76,0,1,,,,,,,,,,,,,0.513,1.44,0,1,,,,
23907,20100323,-98.08,30.62,0.498,1.16,0,1,0.537,1.79,0,1,,,,,,,,,,,,,0.517,1.48,0,1,,,,
23907,20100324,-98.08,30.62,0.482,1.04,0,1,0.525,1.64,0,1,,,,,,,,,,,,,0.504,1.33,0,1,,,,
23907,20100325,-98.08,30.62,0.479,1.01,0,1,0.522,1.59,0,1,,,,,,,,,,,,,0.5,1.29,0,1,,,,
23907,20100326,-98.08,30.62,0.479,1.03,0,1,0.523,1.59,0,1,,,,,,,,,,,,,0.501,1.3,0,1,,,,
23907,20100327,-98.08,30.62,0.478,1.04,0,1,0.523,1.6,0,1,,,,,,,,,,,,,0.501,1.31,0,1,,,,
23907,20100328,-98.08,30.62,0.465,0.95,0,1,0.514,1.52,0,1,,,,,,,,,,,,,0.489,1.22,0,1,,,,
23907,20100329,-98.08,30.62,0.459,0.93,0,1,0.511,1.51,0,1,,,,,,,,,,,,,0.485,1.2,0,1,,,,
23907,20100330,-98.08,30.62,0.453,0.92,0,1,0.507,1.49,0,1,,,,,,,,,,,,,0.48,1.18,0,1,,,,
23907,20100331,-98.08,30.62,0.448,0.9,0,1,0.499,1.44,0,1,,,,,,,,,,,,,0.473,1.15,0,1,,,,
23907,20100401,-98.08,30.62,0.438,0.86,0,1,0.488,1.36,0,1,,,,,,,,,,,,,0.463,1.08,0,1,,,,
23907,20100402,-98.08,30.62,0.426,0.79,0,1,0.477,1.28,0,1,,,,,,,,,,,,,0.452,1.01,0,1,,,,
23907,20100403,-98.08,30.62,0.415,0.73,0,1,0.467,1.2,0,1,,,,,,,,,,,,,0.441,0.94,0,1,,,,
23907,20100404,-98.08,30.62,0.405,0.67,0,1,0.456,1.12,0,1,,,,,,,,,,,,,0.43,0.86,0,1,,,,
23907,20100405,-98.08,30.62,0.396,0.62,0,1,0.445,1.03,0,1,,,,,,,,,,,,,0.421,0.8,0,1,,,,
23907,20100406,-98.08,30.62,0.388,0.57,0,0.994,0.437,0.97,0,1,,,,,,,,,,,,,0.412,0.74,0,1,,,,
23907,20100407,-98.08,30.62,0.38,0.52,0,0.935,0.431,0.93,0,1,,,,,,,,,,,,,0.406,0.7,0,1,,,,
23907,20100408,-98.08,30.62,0.372,0.46,0,0.792,0.424,0.89,0,1,,,,,,,,,,,,,0.398,0.64,0,0.994,,,,
23907,20100409,-98.08,30.62,0.364,0.41,0,0.649,0.416,0.82,0,1,,,,,,,,,,,,,0.39,0.58,0,0.911,,,,
23907,20100410,-98.08,30.62,0.356,0.35,0,0.506,0.406,0.75,0,0.994,,,,,,,,,,,,,0.381,0.52,0,0.768,,,,
23907,20100411,-98.08,30.62,0.348,0.3,0,0.363,0.398,0.67,0,0.905,,,,,,,,,,,,,0.373,0.45,0,0.625,,,,
23907,20100412,-98.08,30.62,0.339,0.24,0,0.22,0.389,0.6,0,0.762,,,,,,,,,,,,,0.364,0.39,0,0.482,,,,
23907,20100413,-98.08,30.62,0.33,0.19,0,0.083,0.38,0.53,0,0.619,,,,,,,,,,,,,0.355,0.33,0,0.339,,,,
23907,20100414,-98.08,30.62,0.322,0.13,0,0,0.373,0.46,0,0.476,,,,,,,,,,,,,0.347,0.27,0,0.196,,,,
23907,20100415,-98.08,30.62,0.313,0.08,0,0,0.366,0.41,0,0.333,,,,,,,,,,,,,0.34,0.22,0,0.06,,,,
23907,20100416,-98.08,30.62,0.307,0.04,0,0,0.363,0.38,0,0.202,,,,,,,,,,,,,0.335,0.18,0,0,,,,
23907,20100417,-98.08,30.62,0.305,0.04,0,0.012,0.364,0.38,0,0.077,,,,,,,,,,,,,0.334,0.19,0,0.012,,,,
23907,20100418,-98.08,30.62,0.315,0.1,0,0.155,0.379,0.5,0,0.167,,,,,,,,,,,,,0.347,0.28,0,0.155,,,,
23907,20100419,-98.08,30.62,0.325,0.17,0,0.298,0.392,0.61,0,0.31,,,,,,,,,,,,,0.359,0.36,0,0.298,,,,
23907,20100420,-98.08,30.62,0.336,0.25,0,0.44,0.405,0.71,0,0.452,,,,,,,,,,,,,0.37,0.45,0,0.44,,,,
23907,20100421,-98.08,30.62,0.349,0.34,0,0.583,0.417,0.82,0,0.595,,,,,,,,,,,,,0.383,0.55,0,0.583,,,,
23907,20100422,-98.08,30.62,0.361,0.42,0,0.726,0.429,0.92,0,0.738,,,,,,,,,,,,,0.395,0.64,0,0.726,,,,
23907,20100423,-98.08,30.62,0.373,0.51,0,0.869,0.438,1,0,0.869,,,,,,,,,,,,,0.405,0.72,0,0.869,,,,
23907,20100424,-98.08,30.62,0.383,0.59,0,1,0.45,1.1,0,1,,,,,,,,,,,,,0.417,0.8,0,1,,,,
23907,20100425,-98.08,30.62,0.388,0.62,0,1,0.452,1.13,0,1,,,,,,,,,,,,,0.42,0.83,0,1,,,,
23907,20100426,-98.08,30.62,0.39,0.64,0,1,0.452,1.13,0,1,,,,,,,,,,,,,0.421,0.85,0,1,,,,
23907,20100427,-98.08,30.62,0.389,0.65,0,1,0.451,1.12,0,1,,,,,,,,,,,,,0.42,0.85,0,1,,,,
23907,20100428,-98.08,30.62,0.385,0.63,0,1,0.448,1.1,0,1,,,,,,,,,,,,,0.416,0.84,0,1,,,,
23907,20100429,-98.08,30.62,0.381,0.62,0,0.946,0.443,1.06,0,1,,,,,,,,,,,,,0.412,0.82,0,1,,,,
23907,20100430,-98.08,30.62,0.376,0.59,0,0.804,0.437,1.01,0,1,,,,,,,,,,,,,0.406,0.79,0,1,,,,
23907,20100501,-98.08,30.62,0.366,0.54,0,0.661,0.425,0.92,0,1,,,,,,,,,,,,,0.395,0.72,0,0.935,,,,
23907,20100502,-98.08,30.62,0.35,0.46,0,0.518,0.408,0.78,0,0.94,,,,,,,,,,,,,0.379,0.62,0,0.792,,,,
23907,20100503,-98.08,30.62,0.335,0.38,0,0.375,0.393,0.67,0,0.798,,,,,,,,,,,,,0.364,0.53,0,0.649,,,,
23907,20100504,-98.08,30.62,0.321,0.3,0,0.232,0.38,0.56,0,0.655,,,,,,,,,,,,,0.35,0.43,0,0.506,,,,
23907,20100505,-98.08,30.62,0.306,0.21,0,0.089,0.368,0.46,0,0.512,,,,,,,,,,,,,0.337,0.35,0,0.363,,,,
23907,20100506,-98.08,30.62,0.29,0.12,0,0,0.358,0.38,0,0.369,,,,,,,,,,,,,0.324,0.25,0,0.22,,,,
23907,20100507,-98.08,30.62,0.273,0.02,0,0,0.347,0.29,0,0.226,,,,,,,,,,,,,0.31,0.16,0,0.077,,,,
23907,20100508,-98.08,30.62,0.256,-0.08,0.06,0,0.337,0.21,0,0.083,,,,,,,,,,,,,0.297,0.07,0,0,,,,
23907,20100509,-98.08,30.62,0.239,-0.18,0.202,0,0.327,0.13,0,0,,,,,,,,,,,,,0.283,-0.02,0,0,,,,
23907,20100510,-98.08,30.62,0.223,-0.27,0.345,0,0.318,0.06,0,0,,,,,,,,,,,,,0.27,-0.1,0,0,,,,
23907,20100511,-98.08,30.62,0.21,-0.34,0.488,0,0.31,-0.01,0,0,,,,,,,,,,,,,0.26,-0.18,0.012,0,,,,
23907,20100512,-98.08,30.62,0.199,-0.41,0.631,0,0.304,-0.06,0,0,,,,,,,,,,,,,0.251,-0.24,0.083,0,,,,
23907,20100513,-98.08,30.62,0.19,-0.45,0.774,0,0.298,-0.11,0,0,,,,,,,,,,,,,0.244,-0.29,0.226,0,,,,
23907,20100514,-98.08,30.62,0.185,-0.49,0.917,0,0.294,-0.15,0,0,,,,,,,,,,,,,0.239,-0.34,0.369,0,,,,
23907,20100515,-98.08,30.62,0.182,-0.51,0.982,0,0.293,-0.16,0,0.012,,,,,,,,,,,,,0.238,-0.36,0.482,0,,,,
23907,20100516,-98.08,30.62,0.196,-0.46,0.839,0,0.31,-0.08,0,0.137,,,,,,,,,,,,,0.253,-0.29,0.482,0,,,,
23907,20100517,-98.08,30.62,0.211,-0.39,0.696,0,0.325,0,0,0.137,,,,,,,,,,,,,0.268,-0.22,0.482,0,,,,
23907,20100518,-98.08,30.62,0.226,-0.32,0.554,0,0.339,0.08,0,0.137,,,,,,,,,,,,,0.282,-0.15,0.47,0,,,,
23907,20100519,-98.08,30.62,0.242,-0.24,0.411,0,0.355,0.16,0,0.137,,,,,,,,,,,,,0.298,-0.07,0.399,0,,,,
23907,20100520,-98.08,30.62,0.258,-0.17,0.268,0,0.369,0.24,0,0.137,,,,,,,,,,,,,0.313,0.01,0.256,0,,,,
23907,20100521,-98.08,30.62,0.272,-0.1,0.125,0,0.382,0.31,0,0.137,,,,,,,,,,,,,0.327,0.08,0.113,0,,,,
23907,20100522,-98.08,30.62,0.284,-0.05,0,0,0.39,0.34,0,0.125,,,,,,,,,,,,,0.337,0.12,0,0,,,,
23907,20100523,-98.08,30.62,0.279,-0.08,0.024,0,0.38,0.27,0,0,,,,,,,,,,,,,0.33,0.07,0,0,,,,
23907,20100524,-98.08,30.62,0.272,-0.12,0.167,0,0.37,0.2,0,0,,,,,,,,,,,,,0.321,0.01,0,0,,,,
23907,20100525,-98.08,30.62,0.264,-0.17,0.31,0,0.359,0.13,0,0,,,,,,,,,,,,,0.312,-0.05,0.024,0,,,,
23907,20100526,-98.08,30.62,0.253,-0.23,0.452,0,0.346,0.05,0,0,,,,,,,,,,,,,0.3,-0.12,0.161,0,,,,
23907,20100527,-98.08,30.62,0.243,-0.28,0.595,0,0.334,-0.02,0,0,,,,,,,,,,,,,0.289,-0.18,0.304,0,,,,
23907,20100528,-98.08,30.62,0.233,-0.34,0.738,0,0.322,-0.09,0.042,0,,,,,,,,,,,,,0.278,-0.24,0.446,0,,,,
23907,20100529,-98.08,30.62,0.222,-0.39,0.881,0,0.312,-0.15,0.179,0,,,,,,,,,,,,,0.267,-0.29,0.589,0,,,,
23907,20100530,-98.08,30.62,0.213,-0.43,1,0,0.303,-0.19,0.321,0,,,,,,,,,,,,,0.258,-0.33,0.732,0,,,,
23907,20100531,-98.08,30.62,0.204,-0.46,1,0,0.295,-0.23,0.464,0,,,,,,,,,,,,,0.249,-0.36,0.875,0,,,,
23907,20100601,-98.08,30.62,0.196,-0.49,1,0,0.287,-0.26,0.607,0,,,,,,,,,,,,,0.241,-0.39,0.994,0,,,,
23907,20100602,-98.08,30.62,0.187,-0.52,1,0,0.279,-0.28,0.75,0,,,,,,,,,,,,,0.233,-0.41,1,0,,,,
23907,20100603,-98.08,30.62,0.189,-0.48,0.929,0,0.284,-0.22,0.804,0.071,,,,,,,,,,,,,0.237,-0.36,0.923,0.042,,,,
23907,20100604,-98.08,30.62,0.203,-0.38,0.786,0,0.3,-0.09,0.762,0.214,,,,,,,,,,,,,0.251,-0.24,0.78,0.113,,,,
23907,20100605,-98.08,30.62,0.217,-0.27,0.643,0,0.314,0.03,0.625,0.357,,,,,,,,,,,,,0.266,-0.12,0.637,0.167,,,,
23907,20100606,-98.08,30.62,0.231,-0.16,0.5,0,0.326,0.15,0.482,0.47,,,,,,,,,,,,,0.278,-0.01,0.494,0.167,,,,
23907,20100607,-98.08,30.62,0.243,-0.06,0.357,0,0.336,0.25,0.339,0.488,,,,,,,,,,,,,0.289,0.1,0.351,0.167,,,,
23907,20100608,-98.08,30.62,0.254,0.04,0.214,0,0.343,0.34,0.196,0.488,,,,,,,,,,,,,0.298,0.19,0.208,0.167,,,,
23907,20100609,-98.08,30.62,0.263,0.12,0.071,0,0.349,0.43,0.054,0.488,,,,,,,,,,,,,0.306,0.27,0.065,0.167,,,,
23907,20100610,-98.08,30.62,0.264,0.16,0,0,0.343,0.43,0,0.417,,,,,,,,,,,,,0.304,0.29,0,0.125,,,,
23907,20100611,-98.08,30.62,0.255,0.14,0,0,0.328,0.38,0,0.274,,,,,,,,,,,,,0.292,0.26,0,0.054,,,,
23907,20100612,-98.08,30.62,0.246,0.11,0,0,0.314,0.32,0,0.131,,,,,,,,,,,,,0.28,0.22,0,0,,,,
23907,20100613,-98.08,30.62,0.238,0.09,0,0,0.302,0.28,0,0.018,,,,,,,,,,,,,0.27,0.19,0,0,,,,
23907,20100614,-98.08,30.62,0.231,0.07,0,0,0.293,0.26,0,0,,,,,,,,,,,,,0.262,0.17,0,0,,,,
23907,20100615,-98.08,30.62,0.225,0.06,0,0,0.286,0.24,0,0,,,,,,,,,,,,,0.255,0.15,0,0,,,,
23907,20100616,-98.08,30.62,0.22,0.04,0,0,0.28,0.23,0,0,,,,,,,,,,,,,0.25,0.14,0,0,,,,
23907,20100617,-98.08,30.62,0.213,0.01,0,0,0.275,0.22,0,0,,,,,,,,,,,,,0.244,0.12,0,0,,,,
23907,20100618,-98.08,30.62,0.205,-0.03,0,0,0.27,0.2,0,0,,,,,,,,,,,,,0.237,0.09,0,0,,,,
23907,20100619,-98.08,30.62,0.196,-0.07,0,0,0.265,0.19,0,0,,,,,,,,,,,,,0.231,0.06,0,0,,,,
23907,20100620,-98.08,30.62,0.188,-0.11,0.03,0,0.261,0.17,0,0,,,,,,,,,,,,,0.224,0.03,0,0,,,,
23907,20100621,-98.08,30.62,0.18,-0.15,0.095,0,0.257,0.16,0,0,,,,,,,,,,,,,0.218,0,0,0,,,,
23907,20100622,-98.08,30.62,0.172,-0.18,0.208,0,0.253,0.15,0,0,,,,,,,,,,,,,0.213,-0.03,0,0,,,,
23907,20100623,-98.08,30.62,0.166,-0.21,0.345,0,0.249,0.14,0,0,,,,,,,,,,,,,0.208,-0.05,0,0,,,,
23907,20100624,-98.08,30.62,0.161,-0.23,0.488,0,0.246,0.13,0,0,,,,,,,,,,,,,0.203,-0.07,0,0,,,,
23907,20100625,-98.08,30.62,0.156,-0.25,0.631,0,0.242,0.13,0,0,,,,,,,,,,,,,0.199,-0.09,0,0,,,,
23907,20100626,-98.08,30.62,0.152,-0.27,0.774,0,0.239,0.12,0,0,,,,,,,,,,,,,0.195,-0.1,0,0,,,,
23907,20100627,-98.08,30.62,0.148,-0.28,0.887,0,0.236,0.12,0,0,,,,,,,,,,,,,0.192,-0.12,0,0,,,,
23907,20100628,-98.08,30.62,0.144,-0.29,0.964,0,0.233,0.12,0,0,,,,,,,,,,,,,0.189,-0.13,0,0,,,,
23907,20100629,-98.08,30.62,0.159,-0.18,0.929,0.06,0.251,0.33,0,0.065,,,,,,,,,,,,,0.205,0.02,0,0.06,,,,
23907,20100630,-98.08,30.62,0.196,0.08,0.792,0.202,0.282,0.67,0,0.208,,,,,,,,,,,,,0.239,0.31,0,0.202,,,,
23907,20100701,-98.08,30.62,0.23,0.33,0.649,0.345,0.31,0.97,0,0.351,,,,,,,,,,,,,0.27,0.57,0,0.345,,,,
23907,20100702,-98.08,30.62,0.278,0.66,0.506,0.488,0.356,1.45,0,0.494,,,,,,,,,,,,,0.317,0.95,0,0.488,,,,
23907,20100703,-98.08,30.62,0.331,1.02,0.363,0.631,0.411,1.99,0,0.637,,,,,,,,,,,,,0.371,1.38,0,0.631,,,,
23907,20100704,-98.08,30.62,0.384,1.36,0.22,0.774,0.459,2.46,0,0.78,,,,,,,,,,,,,0.421,1.77,0,0.774,,,,
23907,20100705,-98.08,30.62,0.431,1.67,0.077,0.917,0.5,2.86,0,0.923,,,,,,,,,,,,,0.465,2.11,0,0.917,,,,
23907,20100706,-98.08,30.62,0.455,1.83,0,1,0.514,2.98,0,1,,,,,,,,,,,,,0.485,2.26,0,1,,,,
23907,20100707,-98.08,30.62,0.455,1.82,0,1,0.511,2.93,0,1,,,,,,,,,,,,,0.483,2.23,0,1,,,,
23907,20100708,-98.08,30.62,0.453,1.81,0,1,0.509,2.89,0,1,,,,,,,,,,,,,0.481,2.21,0,1,,,,
23907,20100709,-98.08,30.62,0.453,1.8,0,1,0.502,2.81,0,1,,,,,,,,,,,,,0.478,2.19,0,1,,,,
23907,20100710,-98.08,30.62,0.451,1.79,0,1,0.492,2.72,0,1,,,,,,,,,,,,,0.472,2.16,0,1,,,,
23907,20100711,-98.08,30.62,0.443,1.75,0,1,0.481,2.62,0,1,,,,,,,,,,,,,0.462,2.12,0,1,,,,
23907,20100712,-98.08,30.62,0.435,1.72,0,1,0.471,2.56,0,1,,,,,,,,,,,,,0.453,2.1,0,1,,,,
23907,20100713,-98.08,30.62,0.427,1.69,0,1,0.464,2.52,0,1,,,,,,,,,,,,,0.445,2.1,0,1,,,,
23907,20100714,-98.08,30.62,0.42,1.66,0,1,0.456,2.48,0,1,,,,,,,,,,,,,0.438,2.08,0,1,,,,
23907,20100715,-98.08,30.62,0.41,1.62,0,1,0.447,2.42,0,1,,,,,,,,,,,,,0.429,2.05,0,1,,,,
23907,20100716,-98.08,30.62,0.38,1.46,0,1,0.422,2.22,0,1,,,,,,,,,,,,,0.401,1.87,0,1,,,,
23907,20100717,-98.08,30.62,0.343,1.24,0,1,0.389,1.93,0,1,,,,,,,,,,,,,0.366,1.63,0,1,,,,
23907,20100718,-98.08,30.62,0.31,1.05,0,1,0.362,1.71,0,1,,,,,,,,,,,,,0.336,1.41,0,1,,,,
23907,20100719,-98.08,30.62,0.28,0.87,0,0.91,0.338,1.5,0,1,,,,,,,,,,,,,0.309,1.21,0,1,,,,
23907,20100720,-98.08,30.62,0.252,0.71,0,0.766,0.317,1.34,0,1,,,,,,,,,,,,,0.285,1.03,0,1,,,,
23907,20100721,-98.08,30.62,0.228,0.56,0,0.623,0.3,1.2,0,1,,,,,,,,,,,,,0.264,0.87,0,1,,,,
23907,20100722,-98.08,30.62,0.207,0.44,0,0.479,0.285,1.09,0,1,,,,,,,,,,,,,0.246,0.74,0,1,,,,
23907,20100723,-98.08,30.62,0.193,0.34,0,0.339,0.274,1.01,0,1,,,,,,,,,,,,,0.233,0.65,0,0.976,,,,
23907,20100724,-98.08,30.62,0.181,0.27,0,0.196,0.264,0.93,0,1,,,,,,,,,,,,,0.223,0.57,0,0.899,,,,
23907,20100725,-98.08,30.62,0.173,0.2,0,0.054,0.257,0.87,0,1,,,,,,,,,,,,,0.215,0.5,0,0.756,,,,
23907,20100726,-98.08,30.62,0.166,0.14,0,0,0.251,0.82,0,0.976,,,,,,,,,,,,,0.209,0.45,0,0.613,,,,
23907,20100727,-98.08,30.62,0.173,0.25,0,0.089,0.256,0.91,0,0.952,,,,,,,,,,,,,0.214,0.58,0,0.56,,,,
23907,20100728,-98.08,30.62,0.188,0.46,0,0.232,0.267,1.1,0,0.952,,,,,,,,,,,,,0.227,0.83,0,0.56,,,,
23907,20100729,-98.08,30.62,0.207,0.71,0,0.375,0.279,1.31,0,0.952,,,,,,,,,,,,,0.243,1.12,0,0.56,,,,
23907,20100730,-98.08,30.62,0.225,0.96,0,0.518,0.291,1.52,0,0.952,,,,,,,,,,,,,0.258,1.41,0,0.583,,,,
23907,20100731,-98.08,30.62,0.241,1.16,0,0.661,0.3,1.68,0,0.952,,,,,,,,,,,,,0.27,1.64,0,0.661,,,,
23907,20100801,-98.08,30.62,0.253,1.33,0,0.804,0.306,1.79,0,0.952,,,,,,,,,,,,,0.279,1.82,0,0.804,,,,
23907,20100802,-98.08,30.62,0.262,1.47,0,0.946,0.309,1.86,0,0.976,,,,,,,,,,,,,0.286,1.96,0,0.946,,,,
23907,20100803,-98.08,30.62,0.258,1.43,0,1,0.302,1.76,0,1,,,,,,,,,,,,,0.28,1.9,0,1,,,,
23907,20100804,-98.08,30.62,0.244,1.28,0,1,0.289,1.57,0,1,,,,,,,,,,,,,0.267,1.71,0,1,,,,
23907,20100805,-98.08,30.62,0.226,1.06,0,0.994,0.276,1.38,0,1,,,,,,,,,,,,,0.251,1.47,0,1,,,,
23907,20100806,-98.08,30.62,0.208,0.84,0,0.905,0.262,1.17,0,1,,,,,,,,,,,,,0.235,1.21,0,1,,,,
23907,20100807,-98.08,30.62,0.192,0.66,0,0.762,0.252,1.03,0,1,,,,,,,,,,,,,0.222,1.01,0,1,,,,
23907,20100808,-98.08,30.62,0.179,0.5,0,0.619,0.245,0.93,0,1,,,,,,,,,,,,,0.212,0.85,0,1,,,,
23907,20100809,-98.08,30.62,0.169,0.36,0,0.476,0.24,0.87,0,1,,,,,,,,,,,,,0.205,0.73,0,1,,,,
23907,20100810,-98.08,30.62,0.161,0.25,0,0.333,0.237,0.83,0,1,,,,,,,,,,,,,0.199,0.63,0,0.976,,,,
23907,20100811,-98.08,30.62,0.154,0.16,0,0.19,0.234,0.79,0,1,,,,,,,,,,,,,0.194,0.54,0,0.881,,,,
23907,20100812,-98.08,30.62,0.149,0.08,0,0.054,0.231,0.75,0,1,,,,,,,,,,,,,0.19,0.46,0,0.738,,,,
23907,20100813,-98.08,30.62,0.145,0.02,0,0,0.228,0.71,0,1,,,,,,,,,,,,,0.186,0.4,0,0.595,,,,
23907,20100814,-98.08,30.62,0.141,-0.03,0,0,0.226,0.67,0,1,,,,,,,,,,,,,0.183,0.34,0,0.452,,,,
23907,20100815,-98.08,30.62,0.138,-0.07,0,0,0.223,0.63,0,1,,,,,,,,,,,,,0.181,0.28,0,0.31,,,,
23907,20100816,-98.08,30.62,0.136,-0.11,0,0,0.221,0.59,0,1,,,,,,,,,,,,,0.178,0.23,0,0.167,,,,
23907,20100817,-98.08,30.62,0.133,-0.14,0.018,0,0.219,0.55,0,0.946,,,,,,,,,,,,,0.176,0.18,0,0.048,,,,
23907,20100818,-98.08,30.62,0.132,-0.16,0.024,0,0.217,0.52,0,0.821,,,,,,,,,,,,,0.174,0.14,0,0,,,,
23907,20100819,-98.08,30.62,0.13,-0.18,0.048,0,0.215,0.48,0,0.679,,,,,,,,,,,,,0.173,0.09,0,0,,,,
23907,20100820,-98.08,30.62,0.129,-0.2,0.048,0,0.213,0.45,0,0.536,,,,,,,,,,,,,0.171,0.06,0,0,,,,
23907,20100821,-98.08,30.62,0.128,-0.21,0.083,0,0.211,0.42,0,0.393,,,,,,,,,,,,,0.17,0.03,0,0,,,,
23907,20100822,-98.08,30.62,0.128,-0.22,0.179,0,0.21,0.39,0,0.25,,,,,,,,,,,,,0.169,-0.01,0,0,,,,
23907,20100823,-98.08,30.62,0.127,-0.23,0.292,0,0.208,0.36,0,0.107,,,,,,,,,,,,,0.168,-0.03,0,0,,,,
23907,20100824,-98.08,30.62,0.126,-0.24,0.417,0,0.207,0.32,0,0.018,,,,,,,,,,,,,0.166,-0.06,0,0,,,,
23907,20100825,-98.08,30.62,0.131,-0.19,0.458,0,0.205,0.28,0,0,,,,,,,,,,,,,0.168,-0.04,0,0,,,,
23907,20100826,-98.08,30.62,0.139,-0.13,0.435,0,0.204,0.23,0,0,,,,,,,,,,,,,0.171,-0.01,0,0,,,,
23907,20100827,-98.08,30.62,0.145,-0.07,0.435,0,0.202,0.18,0,0,,,,,,,,,,,,,0.173,0.01,0,0,,,,
23907,20100828,-98.08,30.62,0.15,-0.03,0.399,0,0.201,0.13,0,0,,,,,,,,,,,,,0.176,0.02,0,0,,,,
23907,20100829,-98.08,30.62,0.156,0.02,0.304,0,0.201,0.1,0,0,,,,,,,,,,,,,0.178,0.04,0,0,,,,
23907,20100830,-98.08,30.62,0.161,0.05,0.19,0,0.201,0.07,0,0,,,,,,,,,,,,,0.181,0.07,0,0,,,,
23907,20100831,-98.08,30.62,0.165,0.09,0.048,0,0.202,0.05,0,0,,,,,,,,,,,,,0.184,0.09,0,0,,,,
23907,20100901,-98.08,30.62,0.163,0.05,0,0,0.203,0.05,0,0,,,,,,,,,,,,,0.183,0.07,0,0,,,,
23907,20100902,-98.08,30.62,0.158,0,0,0,0.204,0.06,0,0,,,,,,,,,,,,,0.181,0.04,0,0,,,,
23907,20100903,-98.08,30.62,0.158,-0.01,0,0.03,0.208,0.09,0,0.024,,,,,,,,,,,,,0.183,0.05,0,0.03,,,,
23907,20100904,-98.08,30.62,0.183,0.17,0,0.173,0.238,0.38,0,0.167,,,,,,,,,,,,,0.211,0.27,0,0.173,,,,
23907,20100905,-98.08,30.62,0.205,0.31,0,0.315,0.261,0.58,0,0.31,,,,,,,,,,,,,0.233,0.44,0,0.315,,,,
23907,20100906,-98.08,30.62,0.226,0.45,0,0.458,0.282,0.74,0,0.452,,,,,,,,,,,,,0.254,0.58,0,0.458,,,,
23907,20100907,-98.08,30.62,0.246,0.57,0,0.601,0.3,0.87,0,0.595,,,,,,,,,,,,,0.273,0.7,0,0.601,,,,
23907,20100908,-98.08,30.62,0.303,0.91,0,0.744,0.355,1.26,0,0.738,,,,,,,,,,,,,0.329,1.06,0,0.744,,,,
23907,20100909,-98.08,30.62,0.363,1.26,0,0.887,0.41,1.63,0,0.881,,,,,,,,,,,,,0.387,1.42,0,0.887,,,,
23907,20100910,-98.08,30.62,0.401,1.47,0,1,0.448,1.87,0,1,,,,,,,,,,,,,0.424,1.64,0,1,,,,
23907,20100911,-98.08,30.62,0.412,1.48,0,1,0.453,1.8,0,1,,,,,,,,,,,,,0.432,1.62,0,1,,,,
23907,20100912,-98.08,30.62,0.421,1.48,0,1,0.46,1.78,0,1,,,,,,,,,,,,,0.44,1.62,0,1,,,,
23907,20100913,-98.08,30.62,0.427,1.49,0,1,0.467,1.77,0,1,,,,,,,,,,,,,0.447,1.63,0,1,,,,
23907,20100914,-98.08,30.62,0.433,1.49,0,1,0.472,1.78,0,1,,,,,,,,,,,,,0.453,1.63,0,1,,,,
23907,20100915,-98.08,30.62,0.4,1.25,0,0.923,0.439,1.51,0,1,,,,,,,,,,,,,0.419,1.39,0,1,,,,
23907,20100916,-98.08,30.62,0.361,0.99,0,0.78,0.401,1.22,0,1,,,,,,,,,,,,,0.381,1.11,0,0.881,,,,
23907,20100917,-98.08,30.62,0.335,0.81,0,0.637,0.376,1.03,0,0.869,,,,,,,,,,,,,0.356,0.93,0,0.738,,,,
23907,20100918,-98.08,30.62,0.319,0.68,0,0.565,0.365,0.93,0,0.804,,,,,,,,,,,,,0.342,0.81,0,0.673,,,,
23907,20100919,-98.08,30.62,0.316,0.62,0,0.565,0.363,0.89,0,0.804,,,,,,,,,,,,,0.339,0.76,0,0.673,,,,
23907,20100920,-98.08,30.62,0.313,0.58,0,0.56,0.36,0.85,0,0.804,,,,,,,,,,,,,0.337,0.73,0,0.673,,,,
23907,20100921,-98.08,30.62,0.311,0.54,0,0.446,0.359,0.82,0,0.804,,,,,,,,,,,,,0.335,0.7,0,0.673,,,,
23907,20100922,-98.08,30.62,0.312,0.53,0,0.393,0.358,0.8,0,0.804,,,,,,,,,,,,,0.335,0.68,0,0.673,,,,
23907,20100923,-98.08,30.62,0.314,0.53,0,0.393,0.359,0.79,0,0.804,,,,,,,,,,,,,0.336,0.68,0,0.738,,,,
23907,20100924,-98.08,30.62,0.317,0.55,0,0.393,0.361,0.79,0,0.929,,,,,,,,,,,,,0.339,0.69,0,0.744,,,,
23907,20100925,-98.08,30.62,0.313,0.52,0,0.321,0.354,0.74,0,0.851,,,,,,,,,,,,,0.333,0.66,0,0.667,,,,
23907,20100926,-98.08,30.62,0.298,0.45,0,0.179,0.34,0.65,0,0.708,,,,,,,,,,,,,0.319,0.58,0,0.524,,,,
23907,20100927,-98.08,30.62,0.285,0.38,0,0.042,0.328,0.57,0,0.565,,,,,,,,,,,,,0.306,0.51,0,0.381,,,,
23907,20100928,-98.08,30.62,0.273,0.31,0,0.012,0.316,0.5,0,0.423,,,,,,,,,,,,,0.294,0.44,0,0.238,,,,
23907,20100929,-98.08,30.62,0.259,0.24,0,0,0.305,0.42,0,0.28,,,,,,,,,,,,,0.282,0.36,0,0.095,,,,
23907,20100930,-98.08,30.62,0.246,0.16,0,0,0.294,0.35,0,0.137,,,,,,,,,,,,,0.27,0.28,0,0.006,,,,
23907,20101001,-98.08,30.62,0.234,0.09,0,0,0.284,0.27,0,0,,,,,,,,,,,,,0.259,0.2,0,0,,,,
23907,20101002,-98.08,30.62,0.223,0.02,0,0,0.275,0.21,0,0,,,,,,,,,,,,,0.249,0.13,0,0,,,,
23907,20101003,-98.08,30.62,0.213,-0.05,0,0,0.267,0.14,0,0,,,,,,,,,,,,,0.24,0.06,0,0,,,,
23907,20101004,-98.08,30.62,0.203,-0.11,0.042,0,0.259,0.09,0,0,,,,,,,,,,,,,0.231,0,0,0,,,,
23907,20101005,-98.08,30.62,0.193,-0.17,0.185,0,0.253,0.04,0,0,,,,,,,,,,,,,0.223,-0.06,0,0,,,,
23907,20101006,-98.08,30.62,0.184,-0.22,0.327,0,0.248,-0.01,0,0,,,,,,,,,,,,,0.216,-0.11,0,0,,,,
23907,20101007,-98.08,30.62,0.176,-0.27,0.47,0,0.244,-0.04,0,0,,,,,,,,,,,,,0.21,-0.16,0.006,0,,,,
23907,20101008,-98.08,30.62,0.168,-0.31,0.613,0,0.24,-0.07,0,0,,,,,,,,,,,,,0.204,-0.2,0.048,0,,,,
23907,20101009,-98.08,30.62,0.162,-0.35,0.756,0,0.237,-0.09,0,0,,,,,,,,,,,,,0.199,-0.23,0.155,0,,,,
23907,20101010,-98.08,30.62,0.156,-0.38,0.899,0,0.234,-0.11,0,0,,,,,,,,,,,,,0.195,-0.26,0.298,0,,,,
23907,20101011,-98.08,30.62,0.151,-0.41,1,0,0.232,-0.12,0,0,,,,,,,,,,,,,0.192,-0.28,0.44,0,,,,
23907,20101012,-98.08,30.62,0.147,-0.44,1,0,0.231,-0.13,0,0,,,,,,,,,,,,,0.189,-0.3,0.583,0,,,,
23907,20101013,-98.08,30.62,0.144,-0.46,1,0,0.229,-0.15,0,0,,,,,,,,,,,,,0.187,-0.32,0.726,0,,,,
23907,20101014,-98.08,30.62,0.141,-0.48,1,0,0.228,-0.16,0,0,,,,,,,,,,,,,0.184,-0.34,0.863,0,,,,
23907,20101015,-98.08,30.62,0.138,-0.5,1,0,0.226,-0.18,0,0,,,,,,,,,,,,,0.182,-0.35,0.964,0,,,,
23907,20101016,-98.08,30.62,0.136,-0.52,1,0,0.224,-0.19,0,0,,,,,,,,,,,,,0.18,-0.37,1,0,,,,
23907,20101017,-98.08,30.62,0.133,-0.54,1,0,0.222,-0.21,0,0,,,,,,,,,,,,,0.178,-0.38,1,0,,,,
23907,20101018,-98.08,30.62,0.131,-0.55,1,0,0.221,-0.22,0,0,,,,,,,,,,,,,0.176,-0.4,1,0,,,,
23907,20101019,-98.08,30.62,0.129,-0.57,1,0,0.219,-0.23,0,0,,,,,,,,,,,,,0.174,-0.41,1,0,,,,
23907,20101020,-98.08,30.62,0.127,-0.58,1,0,0.217,-0.25,0,0,,,,,,,,,,,,,0.172,-0.42,1,0,,,,
23907,20101021,-98.08,30.62,0.126,-0.59,1,0,0.216,-0.26,0.006,0,,,,,,,,,,,,,0.171,-0.43,1,0,,,,
23907,20101022,-98.08,30.62,0.126,-0.6,1,0,0.215,-0.27,0.042,0,,,,,,,,,,,,,0.171,-0.44,1,0,,,,
23907,20101023,-98.08,30.62,0.125,-0.6,1,0,0.215,-0.28,0.185,0,,,,,,,,,,,,,0.17,-0.46,1,0,,,,
23907,20101024,-98.08,30.62,0.125,-0.6,1,0,0.214,-0.3,0.327,0,,,,,,,,,,,,,0.17,-0.47,1,0,,,,
23907,20101025,-98.08,30.62,0.126,-0.6,1,0,0.214,-0.32,0.47,0,,,,,,,,,,,,,0.17,-0.48,1,0,,,,
23907,20101026,-98.08,30.62,0.127,-0.59,1,0,0.213,-0.35,0.613,0,,,,,,,,,,,,,0.17,-0.49,1,0,,,,
23907,20101027,-98.08,30.62,0.127,-0.59,1,0,0.212,-0.37,0.756,0,,,,,,,,,,,,,0.17,-0.5,1,0,,,,